Wind_Speed
34 32 31 30 29 29 29 27 26 23 20 18 17 16 14 13 14 13 13 12 10 9 8 7 7 7 8 8 8 8 9 10 11 12 13 15 17 18 19 20 22 24 25 26
39 37 36 35 32 30 30 29 28 25 22 20 20 18 17 16 16 15 14 13 12 12 11 10 10 10 10 11 11 12 12 12 13 14 15 15 17 18 20 22 23 25 26 27
43 42 42 40 35 34 33 31 31 29 25 24 22 20 19 18 17 16 16 15 14 15 14 13 13 13 12 13 14 14 14 15 16 15 16 17 18 19 22 23 25 26 27 28
45 44 46 41 38 37 36 34 32 30 28 27 25 23 22 21 20 19 18 17 16 17 16 16 16 15 15 15 16 16 17 18 18 18 19 19 20 21 23 25 26 27 29 30
46 46 45 42 40 38 38 36 33 31 28 27 27 26 24 23 23 22 22 20 19 19 19 18 18 18 18 18 17 17 17 18 19 20 21 21 22 23 24 25 27 29 30 32
41 43 43 40 37 37 36 35 32 31 30 29 29 29 27 26 25 24 24 23 20 21 21 21 20 20 20 20 19 19 19 20 20 20 21 22 24 26 27 28 30 31 32 34
35 38 39 36 35 34 35 33 31 31 31 30 30 31 30 30 28 26 26 25 23 22 21 22 22 22 21 20 20 21 22 22 22 23 24 26 27 29 30 31 32 33 34 35
31 33 34 33 32 32 32 31 31 31 31 31 31 31 31 31 30 29 28 27 25 24 22 22 23 23 23 22 22 23 24 24 25 26 28 29 29 31 32 33 34 35 36 37
28 29 29 30 30 30 30 29 29 30 31 32 31 31 32 32 31 29 27 27 26 25 24 24 23 23 24 24 24 25 25 26 27 28 30 31 32 33 34 35 36 37 38 39
24 24 26 26 27 27 27 27 26 27 27 28 28 28 29 30 29 27 26 26 25 24 25 24 24 24 25 26 25 26 27 29 30 31 32 33 35 35 37 38 38 39 40 41
20 20 20 21 22 22 23 22 22 23 24 25 27 27 26 26 26 26 25 25 24 24 24 24 25 25 25 26 27 28 29 30 31 32 33 34 36 36 37 38 39 40 42 43
16 16 16 16 16 18 19 19 20 20 21 22 23 25 25 24 23 22 23 24 23 22 23 23 23 24 25 26 27 29 29 31 32 34 35 36 37 38 39 41 42 44 45 47
12 12 12 11 11 13 15 15 17 18 18 17 18 20 20 20 18 18 19 20 20 20 21 22 23 24 25 26 28 29 31 33 34 36 37 38 39 41 42 44 46 47 49 50
9 9 9 10 10 11 13 14 15 16 15 16 16 16 17 16 16 17 17 18 18 19 20 22 23 24 26 27 29 31 33 34 36 38 39 41 42 44 45 47 49 50 52 53
6 7 7 8 8 8 10 11 12 13 13 13 12 13 14 14 15 15 16 16 17 19 20 22 24 25 27 29 31 33 35 36 38 40 42 44 46 47 49 50 51 53 54 55
5 6 6 6 6 7 8 8 9 9 9 8 9 10 11 12 13 14 15 16 18 20 22 24 25 27 29 31 33 35 37 39 41 43 45 47 48 49 50 51 52 53 54 54
5 5 5 6 6 7 7 7 7 8 8 8 9 10 11 12 13 15 16 18 20 22 24 26 27 29 32 34 37 39 41 43 45 46 47 48 49 50 50 51 52 52 52 51
6 6 6 6 7 6 6 6 6 7 7 8 9 10 12 13 15 17 19 21 23 25 27 29 31 34 36 39 41 42 44 45 46 46 47 48 49 49 49 50 49 49 48 48
8 8 7 7 6 5 5 6 7 8 9 10 11 12 14 16 18 20 22 24 26 29 31 33 35 38 39 41 42 42 43 45 46 46 47 47 47 46 46 45 45 44 43 41
8 8 7 7 7 7 7 8 10 11 12 13 15 17 18 20 22 24 26 28 30 32 34 36 38 39 40 41 42 43 43 44 44 44 44 43 42 42 42 41 40 40 39 38
8 8 8 8 9 9 11 12 13 14 15 17 18 20 22 24 26 28 30 32 33 34 36 37 38 39 39 40 41 42 42 42 41 40 40 39 39 39 39 38 37 37 36 35
9 9 9 10 11 12 13 14 16 17 18 20 22 24 26 27 29 31 32 34 35 35 36 37 38 38 39 39 40 40 40 39 38 38 37 37 37 37 36 36 35 34 33 32
10 11 12 12 13 15 16 17 19 20 22 23 25 27 29 30 31 32 33 34 35 35 36 37 37 38 38 38 38 38 37 36 36 36 36 36 35 35 34 33 32 31 31 30
12 13 14 15 16 18 19 21 22 24 25 26 28 29 30 31 31 32 33 33 34 34 35 35 36 37 36 36 35 34 34 35 35 35 34 33 33 33 32 31 31 30 30 29
15 16 17 18 20 21 22 24 25 26 27 28 29 29 29 30 31 32 32 32 33 33 33 33 33 33 33 32 32 32 32 33 32 32 32 31 31 31 30 30 30 29 29 28
17 18 20 21 22 23 25 25 26 27 28 28 29 29 30 31 31 31 31 31 31 31 30 30 30 30 30 30 31 31 31 31 31 30 30 30 30 30 30 29 29 28 27 27
20 21 21 22 24 24 25 26 27 28 28 28 29 30 30 30 30 29 28 28 28 28 27 27 27 27 28 28 28 28 28 28 28 28 28 29 28 28 28 27 26 27 27 28
Wind_Direction
264 262 259 258 257 256 258 263 269 275 280 283 286 289 285 285 289 290 295 294 282 277 271 264 264 264 264 256 252 249 251 252 250 249 251 251 252 255 258 260 263 264 265 266
264 265 264 261 259 258 259 261 266 271 275 279 280 283 281 282 283 281 289 290 277 271 268 262 263 263 263 261 257 256 258 259 260 257 257 258 257 259 261 264 267 268 268 269
263 264 265 263 261 261 261 262 264 267 270 272 274 274 277 278 278 279 280 283 275 269 264 262 263 262 263 262 262 261 261 265 262 263 266 267 264 265 267 269 271 271 269 271
261 263 263 265 262 261 262 262 263 264 265 265 268 268 271 273 273 274 275 278 274 265 260 259 260 263 263 262 262 261 262 265 267 266 270 270 271 272 274 272 273 273 272 273
261 262 263 263 263 263 262 262 261 262 264 263 262 263 265 268 271 271 270 273 270 263 258 258 259 260 260 260 261 265 267 269 269 269 271 273 275 277 278 280 278 277 276 275
260 262 263 263 263 263 262 261 260 260 261 260 260 260 261 264 267 269 268 267 268 265 259 256 257 258 259 261 262 266 269 272 273 274 275 276 278 279 279 280 280 279 278 277
261 262 262 263 263 261 260 261 259 258 256 256 257 256 256 261 263 265 264 263 265 264 259 256 256 257 259 261 262 265 269 273 274 275 276 278 279 280 281 281 280 280 280 279
261 261 262 261 261 259 259 257 255 253 253 255 255 253 253 256 258 262 262 259 258 259 257 256 256 257 258 261 264 267 270 272 275 277 278 279 281 282 283 282 282 282 282 281
259 260 260 258 259 259 257 255 251 249 250 252 252 253 251 252 255 257 259 255 255 256 256 256 256 257 260 264 267 269 272 275 277 279 281 281 282 284 285 285 285 285 285 284
259 258 255 254 255 256 254 252 249 247 248 248 251 251 251 252 250 251 253 252 251 254 256 256 257 259 262 265 269 272 275 278 280 282 283 284 286 287 288 288 287 287 286 285
258 257 254 249 249 249 248 246 244 244 244 245 245 245 250 250 246 246 248 248 251 252 253 256 257 260 264 268 272 275 278 280 282 284 285 287 288 289 289 288 288 288 288 288
252 248 248 247 245 244 241 240 238 238 238 238 239 244 244 243 244 244 246 247 247 248 253 256 259 264 268 271 275 278 280 283 285 287 289 290 290 290 290 290 290 290 290 289
239 238 238 235 233 231 227 225 226 228 230 233 237 237 235 235 237 240 242 246 247 249 254 258 263 268 272 276 278 281 283 286 287 289 290 290 291 291 291 291 291 290 289 289
229 226 219 215 216 217 210 210 216 223 223 225 222 223 227 230 235 240 246 250 251 255 260 264 269 273 276 279 282 284 286 287 289 290 291 291 292 292 292 292 291 291 291 290
208 205 196 196 204 201 197 200 204 205 206 208 215 222 226 230 238 244 249 254 259 263 267 270 274 277 280 283 285 287 288 289 290 291 292 292 293 293 293 293 293 293 293 292
187 178 177 179 182 178 177 181 186 193 198 206 216 225 237 246 250 253 258 264 268 270 274 278 281 284 286 287 288 289 290 291 291 292 293 293 294 294 295 295 295 295 294 294
181 177 186 186 184 180 188 197 202 202 210 224 233 239 244 250 257 263 267 270 275 279 282 284 286 288 288 289 290 291 292 292 293 294 295 295 296 296 296 296 296 296 296 296
188 191 193 191 193 197 197 201 209 222 232 239 246 255 262 266 269 271 275 279 282 284 286 287 288 289 290 291 292 293 294 294 295 296 296 297 297 297 297 298 298 298 298 298
203 200 197 200 208 214 221 233 242 249 255 261 266 271 274 277 279 281 284 285 286 286 287 288 290 291 292 293 294 294 295 296 296 297 298 298 299 300 300 300 300 301 301 301
209 207 216 225 233 243 253 259 264 268 272 275 278 280 282 284 285 287 287 288 289 289 290 291 292 293 294 294 295 296 296 297 298 298 299 300 301 301 301 302 302 302 302 302
219 230 239 245 252 257 263 267 270 273 277 280 283 285 286 287 289 289 290 290 291 291 292 293 293 294 295 296 297 298 298 298 298 299 300 300 301 302 303 303 303 303 303 303
228 236 246 254 259 263 268 272 275 278 281 284 287 288 290 290 291 291 292 292 292 293 293 294 294 295 296 297 297 298 298 298 299 299 300 301 302 304 305 305 305 304 304 304
243 251 258 264 268 271 275 279 281 283 286 288 290 292 292 292 293 293 294 294 293 293 294 295 295 296 297 297 298 298 299 299 299 301 302 303 304 305 306 306 306 305 306 306
253 262 267 271 272 275 279 282 285 287 289 290 291 292 293 293 293 294 294 294 294 294 295 296 297 297 298 299 299 299 300 300 301 303 304 305 306 307 306 306 306 305 306 306
259 265 270 274 277 280 282 285 287 289 290 291 292 293 293 293 294 295 296 296 296 297 297 298 299 300 300 301 301 302 302 303 304 305 306 307 308 308 306 306 306 306 307 307
267 273 276 278 281 284 286 288 290 291 292 292 292 293 293 294 294 295 295 296 297 299 300 300 301 302 303 304 305 306 307 307 308 308 308 308 309 309 308 308 307 308 309 309
275 278 280 281 284 286 288 290 291 292 292 292 292 293 294 295 296 296 297 298 300 301 302 304 305 306 307 309 310 311 311 311 312 312 311 311 311 311 310 310 310 311 311 311
Height
5805 5807 5809 5811 5814 5815 5816 5818 5819 5821 5822 5824 5824 5824 5824 5823 5822 5822 5821 5820 5820 5819 5819 5819 5819 5819 5820 5820 5820 5821 5822 5823 5824 5825 5826 5827 5828 5829 5830 5831 5831 5831 5831 5831
5796 5798 5799 5802 5805 5807 5809 5811 5812 5814 5817 5818 5819 5820 5820 5820 5819 5819 5818 5818 5817 5817 5817 5817 5817 5817 5817 5818 5818 5818 5819 5820 5821 5822 5822 5823 5824 5824 5825 5825 5825 5825 5825 5825
5787 5789 5789 5791 5797 5799 5801 5803 5806 5807 5811 5812 5813 5814 5815 5815 5815 5815 5815 5814 5814 5814 5814 5814 5814 5814 5814 5814 5815 5815 5816 5816 5816 5817 5818 5818 5819 5820 5820 5819 5819 5819 5818 5818
5776 5779 5778 5785 5787 5790 5792 5795 5797 5799 5802 5805 5806 5808 5809 5810 5811 5811 5810 5810 5810 5810 5810 5810 5810 5810 5811 5811 5811 5811 5811 5812 5812 5813 5814 5814 5814 5814 5813 5813 5812 5811 5811 5810
5766 5767 5768 5773 5777 5780 5783 5785 5788 5791 5794 5796 5799 5801 5802 5804 5805 5805 5805 5805 5805 5805 5805 5805 5805 5806 5806 5806 5806 5806 5807 5807 5808 5808 5808 5808 5808 5807 5807 5806 5805 5804 5803 5801
5756 5757 5758 5765 5768 5770 5773 5774 5780 5782 5785 5788 5790 5793 5796 5796 5797 5798 5798 5799 5799 5799 5800 5800 5800 5801 5801 5801 5801 5802 5802 5802 5802 5802 5802 5802 5801 5800 5799 5798 5796 5795 5794 5792
5747 5747 5749 5754 5757 5761 5764 5767 5771 5773 5776 5779 5782 5785 5787 5788 5789 5790 5791 5792 5792 5793 5793 5794 5795 5795 5796 5795 5795 5796 5797 5797 5796 5796 5795 5795 5794 5792 5791 5789 5788 5786 5784 5782
5739 5740 5744 5745 5748 5751 5754 5756 5760 5763 5766 5769 5772 5775 5777 5779 5781 5782 5783 5784 5785 5785 5786 5787 5788 5789 5790 5790 5790 5790 5790 5790 5789 5789 5788 5787 5785 5784 5782 5780 5778 5776 5774 5771
5732 5734 5735 5736 5738 5741 5744 5747 5750 5753 5757 5760 5763 5765 5768 5770 5772 5774 5775 5776 5777 5778 5779 5780 5781 5782 5783 5783 5783 5782 5782 5782 5782 5781 5779 5778 5776 5774 5772 5770 5768 5765 5763 5760
5724 5726 5726 5728 5730 5732 5735 5738 5741 5745 5748 5751 5754 5756 5759 5761 5763 5765 5767 5768 5770 5771 5772 5773 5774 5775 5776 5776 5776 5775 5775 5774 5773 5771 5770 5768 5766 5764 5762 5759 5757 5754 5751 5748
5718 5719 5720 5722 5723 5725 5727 5730 5733 5737 5740 5743 5747 5749 5751 5753 5755 5757 5759 5761 5763 5764 5765 5767 5767 5768 5768 5769 5769 5768 5767 5766 5764 5762 5760 5758 5755 5753 5751 5748 5745 5742 5739 5736
5713 5714 5715 5717 5718 5719 5721 5724 5728 5731 5734 5737 5739 5742 5745 5746 5748 5750 5752 5753 5755 5757 5759 5760 5761 5761 5761 5761 5760 5760 5758 5757 5755 5752 5750 5748 5745 5742 5739 5736 5733 5729 5726 5722
5709 5710 5711 5712 5713 5715 5717 5719 5723 5726 5730 5732 5734 5736 5739 5741 5743 5745 5747 5748 5750 5751 5752 5753 5754 5754 5753 5753 5752 5751 5749 5747 5745 5743 5740 5737 5734 5731 5727 5724 5720 5716 5712 5708
5707 5707 5708 5710 5711 5713 5714 5717 5719 5722 5725 5727 5730 5732 5735 5737 5739 5741 5742 5743 5744 5745 5746 5747 5747 5746 5745 5744 5743 5741 5740 5737 5735 5732 5729 5726 5722 5719 5715 5710 5706 5701 5697 5692
5705 5705 5706 5708 5710 5712 5713 5716 5718 5720 5722 5724 5726 5729 5731 5733 5735 5736 5737 5738 5739 5740 5740 5740 5739 5738 5737 5736 5734 5732 5730 5727 5724 5721 5717 5714 5710 5705 5701 5696 5691 5686 5681 5676
5703 5704 5706 5707 5709 5711 5713 5715 5717 5719 5721 5723 5725 5727 5728 5729 5730 5732 5733 5733 5734 5734 5733 5733 5732 5730 5729 5727 5725 5722 5720 5716 5713 5709 5705 5701 5696 5691 5686 5681 5676 5671 5665 5660
5703 5704 5706 5707 5709 5710 5712 5714 5716 5718 5719 5721 5723 5724 5725 5726 5727 5727 5728 5728 5728 5727 5726 5725 5723 5721 5719 5717 5715 5711 5708 5704 5701 5696 5692 5687 5682 5677 5672 5667 5661 5656 5651 5645
5703 5704 5706 5707 5709 5710 5711 5713 5714 5716 5717 5718 5720 5721 5721 5722 5722 5723 5722 5722 5721 5720 5719 5717 5715 5712 5710 5707 5704 5700 5696 5692 5688 5683 5678 5674 5668 5663 5658 5653 5647 5642 5637 5632
5702 5703 5704 5706 5708 5709 5711 5712 5713 5714 5715 5716 5716 5717 5718 5718 5717 5717 5716 5715 5714 5712 5710 5708 5705 5702 5699 5695 5692 5688 5684 5679 5675 5670 5665 5661 5656 5651 5645 5640 5635 5630 5625 5620
5700 5701 5703 5704 5706 5707 5709 5710 5710 5711 5712 5712 5712 5712 5712 5712 5711 5710 5709 5707 5705 5703 5700 5697 5694 5691 5687 5684 5680 5676 5672 5667 5663 5658 5653 5649 5644 5639 5634 5629 5624 5619 5614 5610
5699 5701 5702 5703 5704 5705 5706 5707 5707 5707 5708 5708 5707 5707 5706 5705 5704 5702 5700 5698 5695 5693 5690 5686 5683 5680 5676 5672 5668 5664 5660 5656 5651 5647 5643 5638 5633 5629 5623 5619 5614 5609 5604 5600
5697 5698 5699 5700 5701 5702 5702 5703 5703 5703 5702 5702 5701 5700 5699 5697 5695 5693 5691 5688 5685 5682 5679 5676 5672 5669 5665 5661 5657 5653 5649 5645 5641 5636 5632 5627 5623 5618 5613 5608 5604 5599 5595 5591
5694 5695 5696 5696 5697 5697 5697 5697 5697 5697 5696 5695 5694 5692 5690 5688 5686 5683 5681 5678 5675 5672 5669 5665 5662 5658 5654 5650 5646 5642 5638 5634 5630 5626 5622 5617 5613 5609 5604 5599 5595 5591 5587 5583
5691 5691 5692 5692 5692 5692 5692 5692 5691 5690 5689 5687 5686 5684 5682 5679 5677 5674 5671 5668 5665 5662 5658 5655 5651 5647 5644 5640 5636 5632 5629 5625 5621 5616 5612 5608 5604 5599 5595 5591 5586 5582 5579 5575
5687 5687 5687 5687 5687 5687 5686 5685 5684 5682 5681 5679 5677 5675 5673 5670 5668 5665 5662 5658 5655 5652 5649 5645 5641 5638 5634 5631 5627 5623 5619 5615 5611 5607 5603 5599 5595 5591 5587 5583 5579 5575 5571 5567
5681 5682 5681 5681 5680 5680 5678 5677 5676 5674 5672 5670 5668 5666 5663 5661 5658 5655 5652 5649 5646 5643 5639 5636 5633 5629 5626 5622 5618 5614 5610 5606 5603 5599 5595 5591 5587 5583 5579 5575 5571 5567 5564 5560
5675 5675 5675 5674 5673 5672 5670 5669 5667 5665 5663 5661 5659 5656 5654 5651 5649 5646 5643 5640 5638 5635 5631 5628 5625 5621 5618 5614 5610 5606 5602 5599 5595 5591 5587 5583 5579 5575 5571 5568 5564 5560 5556 5553